TimeEST,TemperatureF,Dew PointF,Humidity,Sea Level PressureIn,VisibilityMPH,Wind Direction,Wind SpeedMPH,Gust SpeedMPH,PrecipitationIn,Events,Conditions,WindDirDegrees,DateUTC
12:54 AM,37.0,32.0,82,30.29,10.0,Calm,Calm,-,N/A,,Partly Cloudy,0,2008-11-12 05:54:00
1:54 AM,37.9,30.9,76,30.29,10.0,South,4.6,-,N/A,,Partly Cloudy,170,2008-11-12 06:54:00
2:54 AM,39.0,30.9,73,30.29,10.0,Calm,Calm,-,N/A,,Partly Cloudy,0,2008-11-12 07:54:00
3:54 AM,39.9,30.9,70,30.30,10.0,Calm,Calm,-,N/A,,Clear,0,2008-11-12 08:54:00
4:54 AM,39.9,30.9,70,30.28,10.0,ESE,3.5,-,N/A,,Partly Cloudy,120,2008-11-12 09:54:00
5:54 AM,39.9,32.0,73,30.30,10.0,Calm,Calm,-,N/A,,Clear,0,2008-11-12 10:54:00
6:54 AM,39.0,33.1,79,30.30,10.0,SSE,3.5,-,N/A,,Partly Cloudy,160,2008-11-12 11:54:00
7:54 AM,39.9,32.0,73,30.31,10.0,Calm,Calm,-,N/A,,Mostly Cloudy,0,2008-11-12 12:54:00
8:54 AM,41.0,33.8,76,30.31,10.0,SSE,3.5,-,N/A,,Clear,160,2008-11-12 13:54:00
9:54 AM,46.0,32.0,58,30.32,10.0,South,3.5,-,N/A,,Scattered Clouds,180,2008-11-12 14:54:00
10:54 AM,51.1,32.0,48,30.30,10.0,South,9.2,-,N/A,,Scattered Clouds,180,2008-11-12 15:54:00
11:54 AM,53.1,30.0,41,30.28,10.0,SSE,6.9,-,N/A,,Overcast,150,2008-11-12 16:54:00
12:54 PM,54.0,28.9,38,30.25,10.0,South,12.7,-,N/A,,Scattered Clouds,170,2008-11-12 17:54:00
1:54 PM,53.1,30.0,41,30.24,10.0,South,8.1,-,N/A,,Overcast,170,2008-11-12 18:54:00
2:54 PM,54.0,28.9,38,30.21,10.0,SSE,8.1,-,N/A,,Overcast,160,2008-11-12 19:54:00
3:23 PM,53.6,30.2,41,30.21,10.0,SSE,8.1,17.3,N/A,,Overcast,150,2008-11-12 20:23:00
3:54 PM,53.1,32.0,45,30.22,10.0,South,8.1,-,N/A,,Overcast,170,2008-11-12 20:54:00
4:54 PM,52.0,32.0,47,30.22,10.0,SSW,5.8,-,N/A,,Overcast,200,2008-11-12 21:54:00
5:54 PM,51.1,32.0,48,30.20,10.0,South,5.8,-,N/A,,Overcast,170,2008-11-12 22:54:00
6:54 PM,51.1,33.1,50,30.21,10.0,South,8.1,-,N/A,,Overcast,170,2008-11-12 23:54:00
7:54 PM,50.0,34.0,54,30.18,10.0,SSE,9.2,-,N/A,,Overcast,160,2008-11-13 00:54:00
8:54 PM,50.0,37.0,61,30.19,10.0,South,8.1,-,N/A,,Overcast,170,2008-11-13 01:54:00
9:54 PM,50.0,36.0,59,30.22,10.0,South,5.8,-,N/A,,Overcast,190,2008-11-13 02:54:00
10:54 PM,48.9,36.0,61,30.21,10.0,South,6.9,-,N/A,,Overcast,170,2008-11-13 03:54:00
11:54 PM,48.0,37.0,66,30.17,10.0,SSE,6.9,-,0.00,,Overcast,160,2008-11-13 04:54:00